Location: Hoyos del Collado
(40.3594°N, 5.2003°W)
Time: 02:49:31
(UTC+00:00)

Milstar 3 - Visible Passes

Search period start: 19 July 2024 00:00
Search period end: 29 July 2024 00:00
Orbit: 1098 x 5147 km, 28.2° (Epoch: 18 July)

Date Brightness Start Highest point End Pass type
(mag) Time Alt. Az. Time Alt. Az. Time Alt. Az.
19 Jul 4.5 00:50:50 31° SW 00:56:56 52° S 01:17:21 10° ESE visible
19 Jul 5.5 03:29:29 10° W 03:44:36 45° SSW 04:10:58 10° SE visible
19 Jul 4.3 21:06:15 10° SSW 21:11:37 20° SE 21:15:13 17° ESE visible
19 Jul 4.1 23:45:31 10° WSW 23:54:30 47° SSE 00:11:12 10° ESE visible
20 Jul 5.1 02:27:41 10° W 02:40:44 48° S 03:05:06 10° SE visible
20 Jul 4.0 22:44:54 10° SW 22:55:51 34° SE 23:05:41 10° E visible
21 Jul 4.7 01:29:32 24° WSW 01:37:26 50° S 01:58:54 10° ESE visible
21 Jul 5.8 04:10:22 10° W 04:25:42 36° SSW 04:50:34 10° SSE visible
21 Jul 4.0 21:44:34 10° SW 21:51:03 30° SSE 22:00:48 10° E visible
22 Jul 4.2 00:25:11 10° WSW 00:34:44 49° S 00:52:50 10° ESE visible
22 Jul 5.4 03:08:07 10° W 03:21:39 41° SSW 03:45:31 10° SE visible
22 Jul 4.2 20:44:41 10° SSW 20:49:47 20° SSE 20:55:56 11° ESE visible
22 Jul 4.1 23:24:19 10° WSW 23:36:08 37° SE 23:47:14 10° ESE visible
23 Jul 4.9 02:09:52 23° WSW 02:18:07 44° S 02:39:54 10° SE visible
23 Jul 3.9 22:23:39 10° SW 22:30:45 38° SSE 22:42:17 10° ESE visible
24 Jul 4.4 01:13:27 44° SSW 01:15:09 46° S 01:34:07 10° ESE visible
24 Jul 5.7 03:49:07 10° WSW 04:02:41 32° SSW 04:24:47 10° SSE visible
24 Jul 3.9 21:23:12 10° SW 21:29:18 30° SSE 21:33:18 22° ESE visible
25 Jul 4.7 00:04:02 10° WSW 00:17:04 37° SE 00:28:34 10° ESE visible
25 Jul 5.2 02:50:48 22° WSW 02:58:56 36° SSW 03:20:00 10° SE visible
25 Jul 4.1 20:23:05 10° SSW 20:28:03 21° SSE 20:34:07 10° ESE visible
25 Jul 4.0 23:03:10 10° WSW 23:20:42 16° ESE 23:23:33 10° ESE visible
26 Jul 4.7 01:54:26 39° SSW 01:55:44 40° SSW 02:14:47 10° SE visible
26 Jul 5.8 04:31:18 10° WSW 04:43:54 23° SSW 05:02:18 10° SSE visible
26 Jul 3.8 22:02:26 10° SW 22:09:03 37° SSE 22:10:32 35° SSE visible
27 Jul 5.0 00:43:59 10° WSW 00:58:02 33° SSE 01:09:32 10° SE visible
27 Jul 5.4 03:31:46 19° WSW 03:39:56 27° SSW 03:58:49 10° SSE visible
27 Jul 3.8 21:01:50 10° SW 21:07:39 30° SSE 21:12:22 18° ESE visible
27 Jul 4.5 23:42:56 10° WSW 00:01:36 16° ESE 00:04:35 10° ESE visible
28 Jul 5.0 02:35:19 31° SSW 02:36:29 31° SSW 02:54:30 10° SE visible
28 Jul 4.0 20:01:25 10° SSW 20:06:24 22° SSE 20:12:09 10° ESE visible
28 Jul 3.8 22:42:01 10° WSW 23:05:05 - ESE 22:47:45 38° SSW visible
